STARLINK-4727, 53803

Orbit data source: Space-Track

STARLINK-4727, 53803 is a payload satellite owned by SpaceX/Seattle (US) in LEO that was launched on Sun, 11 Sep 2022 UTC via an FALCON 9 launch vehicle from the Air Force Eastern Test Range (AFETR). Payload-class satellites include a variety of spacecraft equipped with specific instruments for various scientific and technological missions. These include communications satellites like Starlink; space stations such as the ISS; scientific satellites like the Hubble; Earth observation satellites from companies like Planet Labs, Umbra, and HawkEye 360; GPS; miniature CubeSats for education and research; and military/defense satellites.

Loading next visibility...
Identifier
53803, 2022-111AG
Orbit
LEO
Country
Flag of USUS
Related business
Manufacturer
SpaceX/Seattle
Mission
Operational Commercial Communications
Bus & Motor
STARLINK, Unknown motor
Mass
305 kg wet, ~290 kg dry
Launch date (UTC)
2022-09-11 (4 years ago)
Launch vehicle
FALCON 9
Launch site
Air Force Eastern Test Range (AFETR)
Object type
Payload
Rocket body
Debris
Shape & HBR
Box + 1 Pan, 10.1 m
Radar Cross Section
13.562 m², Large (>1 m²)

Expand to show TLE details & history
Last TLE update: 9 hours ago

TLE from 9 hours ago
0 STARLINK-4727
1 53803U 22111AG  26127.89189676  .00001627  00000-0  12023-3 0  9995
2 53803  53.2173 343.3941 0001298  88.7500 271.3640 15.08852688202960
Epoch: 2026-05-07T21:24Z
TLE epoch observation values (Epoch: 2026-05-07T21:24:19.880Z)
Latitude
-0.00007°
Longitude
156.57969°
Altitude
540.581 km
Speed
7.593 km/s
True Right ascension
22h 53m 34s
True Declination
0° 00' 00"
Sunlit
Object was in daylight at epoch
Visualization orbit readout
Latitude
Unknown
Longitude
Unknown
Altitude
Unknown
Speed
Unknown
Apparent Right ascension
Unknown
Apparent Declination
Unknown
Sunlit
N/A
Visualization observer readout
Local Sidereal Time
14:56:22
Azimuth
Unknown
Elevation
Unknown
Doppler factor
Unknown
Orbital elements
Apogee altitude
540.848 km
Perigee altitude
539.052 km
Semi-major axis
6,918.087 km
Eccentricity
0.00013
Inclination
53.2173°
RAAN
343.3941°
Arg. of periapsis
88.75°
True anomaly
271.34913°
Mean anomaly
271.364°
Eccentric anomaly
271.35657°
Mean motion
3.77193 °/min
Orbital period
95.44 mins
BSTAR
0.00012023
Loading maneuver chart data...
Computing Atmospheric mass density...
Loading historical data...
Loading historical data...
Loading historical data...
Loading historical data...
Loading historical data...
Loading historical data...
Loading historical data...

Documentation

Showing up to 5 results
|